Location: Unspecified
(35.7250°N, 0.0000°E)
Time: 02:46:02
(UTC+00:00)

Vanguard 1 - Pass Details

Date: 26 June 2019
Orbit: 653 x 3830 km, 34.3° (Epoch: 17 July)

Event Time Altitude Azimuth Distance (km) Brightness Sun altitude
Rises 02:19:02 0° 249° (WSW) 7,920 - -22.7°
Reaches altitude 10° 02:24:44 10° 249° (WSW) 6,733 - -22.0°
Exits shadow 02:26:53 14° 249° (WSW) 6,268 13.6 -21.8°
Maximum altitude 02:45:38 78° 168° (SSE) 2,651 12.0 -19.5°
Drops below altitude 10° 02:57:15 10° 84° (E) 4,034 13.9 -17.9°
Sets 02:59:46 0° 83° (E) 4,716 14.4 -17.6°
